| time (UTC) | temp F | wind direction | speed MPH | gust MPH | rain 1hr in | rain 24hr in | rain mn in | humidity % | barometer mb |
| 20260504141125 | 62 | 195 | 0.0 | 7.0 | 0.00 | 0.00 | 0.00 | 50 | 1013.2 |
| 20260504081122 | 43 | 321 | 0.0 | 0.0 | 0.00 | 0.00 | 0.00 | 75 | 1013.5 |
| 20260504045628 | 45 | 321 | 0.0 | 0.0 | 0.00 | 0.00 | 0.00 | 71 | 1012.8 |
| 20260504044145 | 45 | 321 | 0.0 | 0.0 | 0.00 | 0.00 | 0.00 | 71 | 1012.7 |
| 20260504042635 | 45 | 321 | 0.0 | 0.0 | 0.00 | 0.00 | 0.00 | 70 | 1012.6 |
| 20260504041131 | 46 | 321 | 0.0 | 0.0 | 0.00 | 0.00 | 0.00 | 69 | 1012.5 |
| 20260504035640 | 46 | 321 | 0.0 | 0.0 | 0.00 | 0.00 | 0.00 | 68 | 1012.5 |
| 20260504034122 | 46 | 321 | 0.0 | 0.0 | 0.00 | 0.00 | 0.00 | 67 | 1012.3 |
| 20260504032639 | 47 | 321 | 0.0 | 0.0 | 0.00 | 0.00 | 0.00 | 66 | 1012.4 |
| 20260504031129 | 47 | 321 | 0.0 | 0.0 | 0.00 | 0.00 | 0.00 | 65 | 1012.5 |
| 20260504025629 | 48 | 321 | 0.0 | 0.0 | 0.00 | 0.00 | 0.00 | 63 | 1012.4 |
| 20260504024143 | 48 | 321 | 0.0 | 0.0 | 0.00 | 0.00 | 0.00 | 62 | 1012.4 |
| 20260504022635 | 49 | 321 | 0.0 | 0.0 | 0.00 | 0.00 | 0.00 | 59 | 1012.4 |
| 20260504021134 | 49 | 321 | 0.0 | 0.0 | 0.00 | 0.00 | 0.00 | 59 | 1012.4 |
| 20260504015630 | 50 | 321 | 0.0 | 0.0 | 0.00 | 0.00 | 0.00 | 57 | 1012.5 |
| 20260504014126 | 51 | 321 | 0.0 | 0.0 | 0.00 | 0.00 | 0.00 | 54 | 1012.3 |
| 20260504012640 | 51 | 321 | 0.0 | 0.0 | 0.00 | 0.00 | 0.00 | 51 | 1012.2 |
| 20260504011134 | 52 | 321 | 0.0 | 0.0 | 0.00 | 0.00 | 0.00 | 50 | 1012.0 |
| 20260504005625 | 53 | 321 | 0.0 | 0.0 | 0.00 | 0.00 | 0.00 | 49 | 1011.8 |
| 20260504004141 | 54 | 321 | 0.0 | 0.0 | 0.00 | 0.00 | 0.00 | 47 | 1011.7 |
| 20260504002634 | 55 | 321 | 0.0 | 0.0 | 0.00 | 0.00 | 0.00 | 46 | 1011.5 |
| 20260504001133 | 56 | 321 | 0.0 | 0.0 | 0.00 | 0.00 | 0.00 | 42 | 1011.1 |
| 20260503235634 | 57 | 321 | 0.0 | 0.0 | 0.00 | 0.00 | 0.00 | 42 | 1011.1 |
| 20260503234132 | 58 | 321 | 0.0 | 0.0 | 0.00 | 0.00 | 0.00 | 40 | 1010.8 |
| 20260503232626 | 58 | 321 | 0.0 | 3.0 | 0.00 | 0.00 | 0.00 | 37 | 1010.6 |
| 20260503231124 | 59 | 321 | 0.0 | 8.0 | 0.00 | 0.00 | 0.00 | 37 | 1010.6 |
| 20260503225634 | 59 | 323 | 1.0 | 6.0 | 0.00 | 0.00 | 0.00 | 36 | 1010.4 |
| 20260503224130 | 59 | 324 | 0.0 | 6.0 | 0.00 | 0.00 | 0.00 | 36 | 1010.2 |
| 20260503222622 | 59 | 313 | 3.0 | 8.0 | 0.00 | 0.00 | 0.00 | 33 | 1010.4 |
| 20260503221125 | 59 | 287 | 1.0 | 9.0 | 0.00 | 0.00 | 0.00 | 35 | 1010.4 |
| 20260503215644 | 60 | 287 | 2.0 | 11.0 | 0.00 | 0.00 | 0.00 | 34 | 1010.4 |
| 20260503214134 | 60 | 299 | 2.0 | 9.0 | 0.00 | 0.00 | 0.00 | 33 | 1010.4 |
| 20260503212636 | 60 | 226 | 3.0 | 12.0 | 0.00 | 0.00 | 0.00 | 33 | 1010.3 |
| 20260503211128 | 60 | 42 | 1.0 | 7.0 | 0.00 | 0.00 | 0.00 | 36 | 1010.1 |
| 20260503205626 | 59 | 307 | 1.0 | 9.0 | 0.00 | 0.00 | 0.00 | 34 | 1010.1 |
| 20260503204146 | 59 | 274 | 1.0 | 11.0 | 0.00 | 0.00 | 0.00 | 36 | 1010.3 |
| 20260503202647 | 59 | 128 | 4.0 | 20.0 | 0.00 | 0.00 | 0.00 | 37 | 1010.3 |
| 20260503201144 | 59 | 355 | 6.0 | 14.0 | 0.00 | 0.00 | 0.00 | 35 | 1010.4 |
| 20260503195636 | 58 | 360 | 5.0 | 14.0 | 0.00 | 0.00 | 0.00 | 35 | 1010.5 |
| 20260503194133 | 58 | 265 | 3.0 | 10.0 | 0.00 | 0.00 | 0.00 | 36 | 1010.6 |
| 20260503192627 | 57 | 246 | 2.0 | 10.0 | 0.00 | 0.00 | 0.00 | 40 | 1010.8 |
| 20260503191122 | 57 | 275 | 2.0 | 9.0 | 0.00 | 0.00 | 0.00 | 37 | 1010.8 |
| 20260503185628 | 57 | 284 | 1.0 | 16.0 | 0.00 | 0.00 | 0.00 | 39 | 1011.0 |
| 20260503184132 | 57 | 223 | 2.0 | 10.0 | 0.00 | 0.00 | 0.00 | 41 | 1011.1 |
| 20260503182626 | 56 | 339 | 6.0 | 15.0 | 0.00 | 0.00 | 0.00 | 41 | 1011.3 |
| 20260503181122 | 56 | 328 | 0.0 | 15.0 | 0.00 | 0.00 | 0.00 | 43 | 1011.4 |
| 20260503175659 | 56 | 332 | 3.0 | 9.0 | 0.00 | 0.00 | 0.00 | 41 | 1011.4 |
| 20260503172625 | 55 | 284 | 6.0 | 16.0 | 0.00 | 0.00 | 0.00 | 43 | 1011.6 |
| 20260503171143 | 55 | 271 | 4.0 | 13.0 | 0.00 | 0.00 | 0.00 | 41 | 1011.6 |